User: anonymous   Login
Location: Unspecified
(0.0000°N, 0.0000°E)
Time: 16:18:57
(UTC+00:00)
Language:

BKA 2 - Orbit

View from above orbital plane
View from above orbital plane
View from above satellite
View from above satellite

Ground track
Ground track

The orbit data is extracted from the following two-line orbital elements,

1 38708U 12039B   19081.48456168 -.00008585  00000-0 -39991-3 0  9994
2 38708  97.4002 352.4742 0002201  95.6585   1.4677 15.19685759369694
Epoch (UTC): 22 March 2019 11:37:46
Eccentricity: 0.0002201
inclination: 97.4002°
perigee height: 505 km
apogee height: 508 km
right ascension of ascending node: 352.4742°
argument of perigee: 95.6585°
revolutions per day: 15.19685759
mean anomaly at epoch: 1.4677°
orbit number at epoch: 36969

The dashed part of the orbit path shows where the satellite is in the earth's shadow,  

DLR